{"data":{"norad_id":57872,"epoch":"2026-09-20T06:46:59.054880Z","epoch_age_seconds":153960,"freshness":"FRESH","line1":"1 57872U 23144J   26263.28262795  .00000104  00000+0  13307-4 0  9995","line2":"2 57872  43.0015 252.1180 0001056 271.9599  88.1132 15.27576849167299","mean_motion":15.27576849,"eccentricity":0.0001056,"inclination_deg":43.0015,"raan_deg":252.118,"arg_perigee_deg":271.9599,"mean_anomaly_deg":88.1132,"bstar":1.3307e-5,"rev_number":16729,"period_min":94.266943161823,"perigee_km":482.33398903533,"apogee_km":483.78307353154,"semimajor_km":6861.1955312834,"source":"CELESTRAK","updated_at":"2026-09-21T09:00:33.717398Z"}}